Time,TemperatureF,DewpointF,PressureIn,WindDirection,WindDirectionDegrees,WindSpeedMPH,WindSpeedGustMPH,Humidity,HourlyPrecipIn,Conditions,Clouds,dailyrainin,SolarRadiationWatts/m^2,SoftwareType,DateUTC
2013-04-12 00:01:00,48.0,38.0,-100.00,NNE,29,2.0,5.0,69,0.00,,,0.00,0.000000,,2013-04-12 07:01:00,
2013-04-12 00:02:00,46.0,33.0,-100.00,East,87,2.0,5.0,61,0.00,,,0.00,0.000000,,2013-04-12 07:02:00,
2013-04-12 00:32:00,46.0,33.0,-100.00,East,87,2.0,5.0,61,0.00,,,0.00,0.000000,,2013-04-12 07:32:00,
2013-04-12 00:42:00,46.0,33.0,-100.00,East,87,2.0,5.0,61,0.00,,,0.00,0.000000,,2013-04-12 07:42:00,
2013-04-12 00:52:00,46.0,33.0,-100.00,East,87,2.0,5.0,61,0.00,,,0.00,0.000000,,2013-04-12 07:52:00,
2013-04-12 01:22:00,47.0,34.0,-100.00,ENE,78,2.0,5.0,61,0.00,,,0.00,0.000000,,2013-04-12 08:22:00,
2013-04-12 01:32:00,47.0,34.0,-100.00,ENE,78,2.0,5.0,61,0.00,,,0.00,0.000000,,2013-04-12 08:32:00,
2013-04-12 01:42:00,47.0,34.0,-100.00,ENE,78,2.0,5.0,61,0.00,,,0.00,0.000000,,2013-04-12 08:42:00,
2013-04-12 01:52:00,47.0,34.0,-100.00,ENE,78,2.0,5.0,61,0.00,,,0.00,0.000000,,2013-04-12 08:52:00,
2013-04-12 02:01:00,47.0,34.0,-100.00,ENE,78,2.0,5.0,61,0.00,,,0.00,0.000000,,2013-04-12 09:01:00,
2013-04-12 02:02:00,46.0,35.0,-100.00,ESE,107,3.0,5.0,64,0.00,,,0.00,0.000000,,2013-04-12 09:02:00,
2013-04-12 02:22:00,46.0,35.0,-100.00,ESE,107,3.0,5.0,64,0.00,,,0.00,0.000000,,2013-04-12 09:22:00,
2013-04-12 02:33:00,46.0,35.0,-100.00,ESE,107,3.0,5.0,64,0.00,,,0.00,0.000000,,2013-04-12 09:33:00,
2013-04-12 02:44:00,46.0,35.0,-100.00,ESE,107,3.0,5.0,64,0.00,,,0.00,0.000000,,2013-04-12 09:44:00,
2013-04-12 02:53:00,46.0,35.0,-100.00,ESE,107,3.0,5.0,64,0.00,,,0.00,0.000000,,2013-04-12 09:53:00,
2013-04-12 03:02:00,47.0,37.0,-100.00,NE,36,1.0,5.0,68,0.00,,,0.00,0.000000,,2013-04-12 10:02:00,
2013-04-12 03:34:00,47.0,37.0,-100.00,NE,36,1.0,5.0,68,0.00,,,0.00,0.000000,,2013-04-12 10:34:00,
2013-04-12 03:42:00,47.0,37.0,-100.00,NE,36,1.0,5.0,68,0.00,,,0.00,0.000000,,2013-04-12 10:42:00,
2013-04-12 03:52:00,47.0,37.0,-100.00,NE,36,1.0,5.0,68,0.00,,,0.00,0.000000,,2013-04-12 10:52:00,
2013-04-12 04:02:00,46.0,35.0,-100.00,North,10,2.0,3.0,66,0.00,,,0.00,0.000000,,2013-04-12 11:02:00,
2013-04-12 04:22:00,46.0,35.0,-100.00,North,10,2.0,3.0,66,0.00,,,0.00,0.000000,,2013-04-12 11:22:00,
2013-04-12 04:33:00,46.0,35.0,-100.00,North,10,2.0,3.0,66,0.00,,,0.00,0.000000,,2013-04-12 11:33:00,
2013-04-12 04:43:00,46.0,35.0,-100.00,North,10,2.0,3.0,66,0.00,,,0.00,0.000000,,2013-04-12 11:43:00,
2013-04-12 04:52:00,46.0,35.0,-100.00,North,10,2.0,3.0,66,0.00,,,0.00,0.000000,,2013-04-12 11:52:00,
2013-04-12 05:02:00,46.0,35.0,-100.00,ESE,107,2.0,4.0,66,0.00,,,0.00,0.000000,,2013-04-12 12:02:00,
2013-04-12 05:22:00,46.0,35.0,-100.00,ESE,107,2.0,4.0,66,0.00,,,0.00,0.000000,,2013-04-12 12:22:00,
2013-04-12 05:33:00,46.0,35.0,-100.00,ESE,107,2.0,4.0,66,0.00,,,0.00,0.000000,,2013-04-12 12:33:00,
2013-04-12 05:42:00,46.0,35.0,-100.00,ESE,107,2.0,4.0,66,0.00,,,0.00,0.000000,,2013-04-12 12:42:00,
2013-04-12 05:53:00,46.0,35.0,-100.00,ESE,107,2.0,4.0,66,0.00,,,0.00,0.000000,,2013-04-12 12:53:00,
2013-04-12 06:02:00,45.0,35.0,-100.00,East,94,4.0,5.0,68,0.00,,,0.00,0.000000,,2013-04-12 13:02:00,
2013-04-12 06:22:00,45.0,35.0,-100.00,East,94,4.0,5.0,68,0.00,,,0.00,0.000000,,2013-04-12 13:22:00,
2013-04-12 06:32:00,45.0,35.0,-100.00,East,94,4.0,5.0,68,0.00,,,0.00,0.000000,,2013-04-12 13:32:00,
2013-04-12 06:43:00,45.0,35.0,-100.00,East,94,4.0,5.0,68,0.00,,,0.00,0.000000,,2013-04-12 13:43:00,
2013-04-12 06:53:00,45.0,35.0,-100.00,East,94,4.0,5.0,68,0.00,,,0.00,0.000000,,2013-04-12 13:53:00,
2013-04-12 07:02:00,46.0,35.0,-100.00,NNE,15,3.0,5.0,64,0.00,,,0.00,9.000000,,2013-04-12 14:02:00,
2013-04-12 07:23:00,46.0,35.0,-100.00,NNE,15,3.0,5.0,64,0.00,,,0.00,9.000000,,2013-04-12 14:23:00,
2013-04-12 07:33:00,46.0,35.0,-100.00,NNE,15,3.0,5.0,64,0.00,,,0.00,9.000000,,2013-04-12 14:33:00,
2013-04-12 07:42:00,46.0,35.0,-100.00,NNE,15,3.0,5.0,64,0.00,,,0.00,9.000000,,2013-04-12 14:42:00,
2013-04-12 07:53:00,46.0,35.0,-100.00,NNE,15,3.0,5.0,64,0.00,,,0.00,9.000000,,2013-04-12 14:53:00,
2013-04-12 08:02:00,58.0,37.0,-100.00,North,6,1.0,3.0,46,0.00,,,-99.99,135.000000,,2013-04-12 15:02:00,
2013-04-12 08:33:00,58.0,37.0,-100.00,North,6,1.0,3.0,46,0.00,,,-99.99,135.000000,,2013-04-12 15:33:00,
2013-04-12 08:43:00,58.0,37.0,-100.00,North,6,1.0,3.0,46,0.00,,,-99.99,135.000000,,2013-04-12 15:43:00,
2013-04-12 08:53:00,58.0,37.0,-100.00,North,6,1.0,3.0,46,0.00,,,-99.99,135.000000,,2013-04-12 15:53:00,
2013-04-12 09:02:00,60.0,37.0,-100.00,SW,228,6.0,9.0,42,0.00,,,-99.99,429.000000,,2013-04-12 16:02:00,
2013-04-12 09:33:00,60.0,37.0,-100.00,SW,228,6.0,9.0,42,0.00,,,-99.99,429.000000,,2013-04-12 16:33:00,
2013-04-12 09:43:00,60.0,37.0,-100.00,SW,228,6.0,9.0,42,0.00,,,-99.99,429.000000,,2013-04-12 16:43:00,
2013-04-12 09:53:00,60.0,37.0,-100.00,SW,228,6.0,9.0,42,0.00,,,-99.99,429.000000,,2013-04-12 16:53:00,
2013-04-12 10:02:00,61.0,36.0,-100.00,WSW,258,9.0,13.0,39,0.00,,,0.00,671.000000,,2013-04-12 17:02:00,
2013-04-12 10:34:00,61.0,36.0,-100.00,WSW,258,9.0,13.0,39,0.00,,,0.00,671.000000,,2013-04-12 17:34:00,
2013-04-12 10:46:00,61.0,36.0,-100.00,WSW,258,9.0,13.0,39,0.00,,,0.00,671.000000,,2013-04-12 17:46:00,
2013-04-12 12:02:00,67.0,32.0,-100.00,NW,308,7.0,15.0,27,0.00,,,0.00,1019.000000,,2013-04-12 19:02:00,
2013-04-12 12:33:00,67.0,32.0,-100.00,NW,308,7.0,15.0,27,0.00,,,0.00,1019.000000,,2013-04-12 19:33:00,
2013-04-12 12:53:00,67.0,32.0,-100.00,NW,308,7.0,15.0,27,0.00,,,0.00,1019.000000,,2013-04-12 19:53:00,
2013-04-12 13:33:00,70.0,32.0,-100.00,WNW,286,7.0,17.0,24,0.00,,,0.00,1100.000000,,2013-04-12 20:33:00,
2013-04-12 13:43:00,70.0,32.0,-100.00,WNW,286,7.0,17.0,24,0.00,,,0.00,1100.000000,,2013-04-12 20:43:00,
2013-04-12 13:52:00,70.0,32.0,-100.00,WNW,286,7.0,17.0,24,0.00,,,0.00,1100.000000,,2013-04-12 20:52:00,
2013-04-12 14:01:00,70.0,32.0,-100.00,WNW,286,7.0,17.0,24,0.00,,,0.00,1100.000000,,2013-04-12 21:01:00,
2013-04-12 14:02:00,71.0,28.0,-100.00,NW,307,7.0,16.0,20,0.00,,,0.00,1095.000000,,2013-04-12 21:02:00,
2013-04-12 14:33:00,71.0,28.0,-100.00,NW,307,7.0,16.0,20,0.00,,,0.00,1095.000000,,2013-04-12 21:33:00,
2013-04-12 14:43:00,71.0,28.0,-100.00,NW,307,7.0,16.0,20,0.00,,,0.00,1095.000000,,2013-04-12 21:43:00,
2013-04-12 14:52:00,71.0,28.0,-100.00,NW,307,7.0,16.0,20,0.00,,,0.00,1095.000000,,2013-04-12 21:52:00,
2013-04-12 15:33:00,72.0,27.0,-100.00,WNW,299,8.0,17.0,19,0.00,,,0.00,1034.000000,,2013-04-12 22:33:00,
2013-04-12 16:22:00,73.0,33.0,-100.00,West,278,5.0,12.0,23,0.00,,,0.00,894.000000,,2013-04-12 23:22:00,
2013-04-12 16:32:00,73.0,33.0,-100.00,West,278,5.0,12.0,23,0.00,,,0.00,894.000000,,2013-04-12 23:32:00,
2013-04-12 16:42:00,73.0,33.0,-100.00,West,278,5.0,12.0,23,0.00,,,0.00,894.000000,,2013-04-12 23:42:00,
2013-04-12 16:52:00,73.0,33.0,-100.00,West,278,5.0,12.0,23,0.00,,,0.00,894.000000,,2013-04-12 23:52:00,
2013-04-12 17:01:00,73.0,33.0,-100.00,West,278,5.0,12.0,23,0.00,,,0.00,894.000000,,2013-04-13 00:01:00,
2013-04-12 17:02:00,69.0,30.0,-100.00,SW,233,10.0,17.0,23,0.00,,,0.00,677.000000,,2013-04-13 00:02:00,
2013-04-12 17:32:00,69.0,30.0,-100.00,SW,233,10.0,17.0,23,0.00,,,0.00,677.000000,,2013-04-13 00:32:00,
2013-04-12 18:22:00,67.0,31.0,-100.00,SSW,204,10.0,19.0,26,0.00,,,0.00,442.000000,,2013-04-13 01:22:00,
2013-04-12 18:33:00,67.0,31.0,-100.00,SSW,204,10.0,19.0,26,0.00,,,0.00,442.000000,,2013-04-13 01:33:00,
2013-04-12 18:43:00,67.0,31.0,-100.00,SSW,204,10.0,19.0,26,0.00,,,0.00,442.000000,,2013-04-13 01:43:00,
2013-04-12 18:52:00,67.0,31.0,-100.00,SSW,204,10.0,19.0,26,0.00,,,0.00,442.000000,,2013-04-13 01:52:00,
2013-04-12 19:01:00,67.0,31.0,-100.00,SSW,204,10.0,19.0,26,0.00,,,0.00,442.000000,,2013-04-13 02:01:00,
2013-04-12 19:02:00,64.0,26.0,-100.00,South,181,8.0,16.0,24,0.00,,,0.00,176.000000,,2013-04-13 02:02:00,
2013-04-12 19:23:00,64.0,26.0,-100.00,South,181,8.0,16.0,24,0.00,,,0.00,176.000000,,2013-04-13 02:23:00,
2013-04-12 19:33:00,64.0,26.0,-100.00,South,181,8.0,16.0,24,0.00,,,0.00,176.000000,,2013-04-13 02:33:00,
2013-04-12 19:42:00,64.0,26.0,-100.00,South,181,8.0,16.0,24,0.00,,,0.00,176.000000,,2013-04-13 02:42:00,
2013-04-12 19:53:00,64.0,26.0,-100.00,South,181,8.0,16.0,24,0.00,,,0.00,176.000000,,2013-04-13 02:53:00,
2013-04-12 20:02:00,59.0,25.0,-100.00,SE,142,5.0,12.0,27,0.00,,,-99.99,6.000000,,2013-04-13 03:02:00,
2013-04-12 20:33:00,59.0,25.0,-100.00,SE,142,5.0,12.0,27,0.00,,,-99.99,6.000000,,2013-04-13 03:33:00,
2013-04-12 20:43:00,59.0,25.0,-100.00,SE,142,5.0,12.0,27,0.00,,,-99.99,6.000000,,2013-04-13 03:43:00,
2013-04-12 20:53:00,59.0,25.0,-100.00,SE,142,5.0,12.0,27,0.00,,,-99.99,6.000000,,2013-04-13 03:53:00,
2013-04-12 21:02:00,58.0,28.0,-100.00,SE,133,8.0,11.0,31,0.00,,,0.00,0.000000,,2013-04-13 04:02:00,
2013-04-12 21:33:00,58.0,28.0,-100.00,SE,133,8.0,11.0,31,0.00,,,0.00,0.000000,,2013-04-13 04:33:00,
2013-04-12 21:42:00,58.0,28.0,-100.00,SE,133,8.0,11.0,31,0.00,,,0.00,0.000000,,2013-04-13 04:42:00,
2013-04-12 21:53:00,58.0,28.0,-100.00,SE,133,8.0,11.0,31,0.00,,,0.00,0.000000,,2013-04-13 04:53:00,
2013-04-12 22:32:00,56.0,33.0,-100.00,SE,137,9.0,13.0,42,0.00,,,0.00,0.000000,,2013-04-13 05:32:00,
2013-04-12 22:43:00,56.0,33.0,-100.00,SE,137,9.0,13.0,42,0.00,,,0.00,0.000000,,2013-04-13 05:43:00,
2013-04-12 22:52:00,56.0,33.0,-100.00,SE,137,9.0,13.0,42,0.00,,,0.00,0.000000,,2013-04-13 05:52:00,
2013-04-12 23:01:00,56.0,33.0,-100.00,SE,137,9.0,13.0,42,0.00,,,0.00,0.000000,,2013-04-13 06:01:00,
2013-04-12 23:02:00,56.0,34.0,-100.00,SE,139,9.0,15.0,43,0.00,,,0.00,0.000000,,2013-04-13 06:02:00,
2013-04-12 23:24:00,56.0,34.0,-100.00,SE,139,9.0,15.0,43,0.00,,,0.00,0.000000,,2013-04-13 06:24:00,
2013-04-12 23:35:00,56.0,34.0,-100.00,SE,139,9.0,15.0,43,0.00,,,0.00,0.000000,,2013-04-13 06:35:00,
2013-04-12 23:49:00,56.0,34.0,-100.00,SE,139,9.0,15.0,43,0.00,,,0.00,0.000000,,2013-04-13 06:49:00,
2013-04-12 23:54:00,56.0,34.0,-100.00,SE,139,9.0,15.0,43,0.00,,,0.00,0.000000,,2013-04-13 06:54:00,